Tracking 23099 objects as of 13-May-2021
HD Live streaming from Space Station
objects crossing your sky now

SL-12 R/B(2)

Track SL-12 R/B(2) now!


NORAD ID: 21221
Int'l Code: 1991-025E
Perigee: 19,098.8 km
Apogee: 19,164.7 km
Inclination: 65.1 °
Period: 675.5 minutes
Semi major axis: 25502 km
RCS: 2.0946 m2 (large)
Launch date: April 4, 1991
Source: Commonwealth of Independent States (former USSR) (CIS)
Launch site: TYURATAM MISSILE AND SPACE COMPLEX (TTMTR)

Note: This is a ROCKET BODY
aabbcc
Your satellite tracking list
Your tracking list is empty




NASA's NSSDC Master Catalog

Two Line Element Set (TLE):
1 21221U 91025E   21132.14608642 -.00000067  00000-0  00000-0 0  9999
2 21221  65.1008   8.5910 0012930 219.9900 254.5633  2.13168037234343
Source of the keplerian elements: AFSPC